Showing default

TIANPING 1B, 43714

Orbit data source: Space-Track

TIANPING 1B, 43714 is a payload satellite owned by Guoxing (CN) in SSO that was launched on Mon, 19 Nov 2018 UTC via a CHANG ZHENG 2D launch vehicle from the Jiuquan Satellite Launch Center, China (JSC). Payload-class satellites include a variety of spacecraft equipped with specific instruments for various scientific and technological missions. These include communications satellites like Starlink; space stations such as the ISS; scientific satellites like the Hubble; Earth observation satellites from companies like Planet Labs, Umbra, and HawkEye 360; GPS; miniature CubeSats for education and research; and military/defense satellites.

Loading next visibility...
Identifier
43714, 2018-094E
Orbit
SSO
Last TLE update
16 hours ago
Origin
Manufacturer
DFH Shenzhen
Mission
Operational Commercial Calibration
Bus & Motor
PINA, Unknown motor
Mass
10 kg wet, ~10 kg dry
Launch date (UTC)
2018-11-19 (7 years ago)
Launch vehicle
CHANG ZHENG 2D
Launch site
Jiuquan Satellite Launch Center, China (JSC)
Object type
Payload
Rocket body
Debris
Shape & HBR
Box + 2 Pan, 0.5 m
Radar Cross Section
0.048 m², Medium (>0.1 m² and < 1m²)

Expand to show TLE details & history

TLE from 16 hours ago
0 TIANPING 1B
1 43714U 18094E   25183.66321689  .00063700  00000-0  45645-3 0  9994
2 43714  97.3183 218.0728 0001530 312.8322  47.2814 15.73512326369830
Epoch: 2025-07-02T15:55Z
TLE epoch observation values (Epoch: 2025-07-02T15:55:01.939Z)
Latitude
0.00004°
Longitude
58.37363°
Altitude
351.335 km
Speed
7.699 km/s
True Right ascension
14h 32m 17s
True Declination
0° 00' 00"
Sunlit
Object was in full shadow at epoch
Visualization orbit readout
Latitude
67.38496°
Longitude
41.20244°
Altitude
360.823 km
Speed
7.699 km/s
Apparent Right ascension
09h 07m 49s
Apparent Declination
21° 19' 44"
Sunlit
Object is in daylight
Visualization observer readout
Local Sidereal Time
19:13:59
Azimuth
331.111° NNW
Elevation
-23.249°
Doppler factor
1
Orbital elements
Apogee altitude
346.788 km
Perigee altitude
344.73 km
Semi-major axis
6,723.896 km
Eccentricity
0.00015
Inclination
97.3183°
RAAN
218.0728°
Arg. of periapsis
312.8322°
True anomaly
Unknown
Mean anomaly
47.2814°
Eccentric anomaly
Unknown
Mean motion
3.93651 °/min
Orbital period
91.45 mins
BSTAR
0.00045645
Loading maneuver chart data...
Loading SW <> Apogee altitude chart data...
Loading historical data...
Loading historical data...
Loading historical data...
Loading historical data...
Loading historical data...
Loading historical data...
Loading historical data...

TIANPING 1B Visibility forecast

Observer location: undefined°, undefined°

Span
Click to sort rows by Start time (UTC) header in descending order
Start Az.
Max El. time (UTC)
Max El. Az.
Max El.
End time (UTC)
End Az.
4 mins2025-07-03 15:22:09.071Z359.17° N2025-07-03 15:24:09.071Z268.357° W39.671°2025-07-03 15:26:09.071Z206.869° SW
|